Regional Weather Roundup
Issued by NWS

Home | Current Version | Previous Version | Graphics & Text | Print | Product List | Glossary On
Versions: 1 2 3 4 5 6 7 8 9 10 11 12 13 14 15 16 17 18 19 20 21 22 23 24 25 26 27 28 29 30 31 32 33 34 35 36 37 38 39 40 41 42 43 44 45 46 47 48 49 50
066
ASUS43 KBIS 301710
RWRND

NORTH DAKOTA REGIONAL WEATHER ROUNDUP
NATIONAL WEATHER SERVICE BISMARCK ND
1200 PM CDT TUE AUG 30 2016

NOTE: "FAIR" INDICATES FEW OR NO CLOUDS BELOW 12,000 FEET WITH NO
SIGNIFICANT WEATHER AND/OR OBSTRUCTIONS TO VISIBILITY.


NDZ001>003-009>011-017-301800-
NORTHWEST NORTH DAKOTA

CITY           SKY/WX    TMP DP  RH WIND       PRES   REMARKS
WILLISTON      SUNNY     79  44  28 SE13      30.21F
MINOT          SUNNY     76  47  35 SE9       30.25F
MINOT AFB      SUNNY     74  47  37 SE10      30.24F
$$

NDZ018>021-031>035-040>046-301800-
SOUTHWEST NORTH DAKOTA

CITY           SKY/WX    TMP DP  RH WIND       PRES   REMARKS
BISMARCK       SUNNY     73  52  47 SE6       30.27F
DICKINSON      CLOUDY    74  52  46 S14       30.24R
GARRISON         N/A     74  49  41 SE12      30.26F
HETTINGER ARPT SUNNY     75  56  51 SE14      30.25F
$$

NDZ004>008-012>016-024-026-027-054-301800-
NORTHEAST NORTH DAKOTA

CITY           SKY/WX    TMP DP  RH WIND       PRES   REMARKS
GRAND FORKS    MOSUNNY   74  52  46 W7        30.24F
GRND FRKS AFB  SUNNY     73  50  43 VRB5      30.25S
DEVILS LAKE    SUNNY     71  51  49 SW6       30.29S
$$

NDZ022-023-025-028>030-036>039-047>053-301800-
SOUTHEAST NORTH DAKOTA

CITY           SKY/WX    TMP DP  RH WIND       PRES   REMARKS
FARGO          SUNNY     75  48  38 VRB3      30.24F
JAMESTOWN      SUNNY     73  52  47 VRB5      30.27S
$$





USA.gov is the U.S. government's official web portal to all federal, state and local government web resources and services.